Theta_e
352 355 358 359 358 358 359 359 358 355 355 354 354 354 354 353 351 350 350 349 348 348 348 349 350 350 350 350 351 352 352 352 352 352 352 352 353 352 352 351 351 352 352 352 352 351 350 351 351 351 351 351 351 351 351 352 352 352 352 351 350 350 350 349 349 348 347 346 346 347 348 348 347 348 347 347 346 346 345 346 344 341 341 343 346
350 356 358 358 357 358 359 358 357 355 355 355 354 354 354 352 350 350 350 350 348 349 349 349 349 349 350 351 351 352 353 353 353 352 353 353 352 352 351 351 351 351 353 353 352 352 352 351 351 351 351 351 352 351 351 351 351 351 350 351 350 349 350 349 348 348 348 347 347 347 347 347 347 347 347 346 345 344 345 345 345 340 339 344 344
354 356 358 357 359 358 357 357 356 355 355 355 354 353 353 351 350 350 350 349 348 349 349 349 349 349 350 351 351 351 352 353 353 352 352 352 352 352 351 351 352 351 352 352 352 352 351 351 350 350 350 351 351 351 350 350 350 350 350 349 348 347 348 348 347 347 347 346 346 346 346 346 345 346 346 347 346 346 345 345 345 344 340 343 343
353 355 357 357 358 357 357 357 355 355 355 354 354 353 352 351 350 350 350 349 348 349 349 349 350 350 351 352 352 353 353 353 353 353 353 352 352 352 352 351 351 351 352 352 351 351 350 350 350 350 350 350 350 350 350 350 350 349 349 349 346 347 347 346 346 345 345 345 344 342 342 336 341 344 346 346 345 344 344 343 343 342 342 343 343
354 355 356 356 356 357 357 356 355 355 355 355 353 353 352 351 350 349 349 349 349 349 350 350 350 351 351 352 352 353 353 353 353 353 353 352 352 352 351 352 351 351 352 352 351 350 349 350 350 349 349 349 350 350 350 349 349 348 348 347 347 347 347 346 345 345 343 343 343 341 334 335 335 342 344 345 345 344 343 343 342 342 341 342 342
354 355 356 355 355 355 356 355 355 355 355 354 354 353 352 351 350 350 349 349 349 350 351 351 351 351 351 352 353 353 353 353 353 352 353 352 353 352 352 352 351 351 351 351 351 350 350 349 348 348 347 347 346 347 348 347 346 346 346 346 346 345 345 345 345 346 344 343 343 337 336 336 335 338 343 344 343 342 341 340 341 340 340 340 340
354 355 354 354 354 354 355 355 355 355 355 354 353 352 352 351 350 350 349 349 349 350 351 352 352 352 351 352 352 353 353 352 352 352 352 352 352 352 352 352 352 351 351 351 349 348 348 348 348 347 346 346 345 345 345 344 344 344 344 344 344 344 344 345 345 344 343 342 338 337 337 338 337 337 342 342 342 341 341 341 340 339 339 339 340
354 354 354 354 353 355 355 355 355 355 354 353 353 352 352 351 350 349 349 349 349 349 350 351 351 351 351 351 351 352 352 352 352 352 352 352 352 351 351 352 351 351 351 350 349 350 349 349 347 345 344 344 343 344 344 343 343 342 343 343 346 345 344 346 346 347 343 339 338 337 338 339 339 338 341 340 340 339 339 339 338 338 339 339 339
351 353 354 353 353 355 355 354 354 354 354 353 353 352 351 350 349 349 349 349 349 349 349 350 350 351 351 351 352 352 352 352 352 353 352 352 352 352 351 351 350 349 349 349 348 349 349 349 348 345 345 344 344 344 344 343 342 344 344 344 345 344 345 346 347 346 339 337 336 336 337 337 338 337 338 337 338 339 340 339 339 338 338 338 338
351 352 353 353 353 355 354 354 354 354 353 353 352 352 351 350 349 348 348 348 348 349 349 348 350 351 351 351 351 352 352 352 352 352 352 351 351 350 350 350 349 349 349 348 348 348 348 348 348 348 346 345 344 344 343 343 344 344 344 345 344 344 347 343 341 340 334 335 336 336 338 341 337 337 339 340 340 340 340 341 341 340 340 340 339
349 351 353 352 352 353 353 354 354 353 353 352 352 351 350 350 349 348 347 347 348 348 348 348 349 350 351 352 352 352 352 352 352 352 352 351 351 351 350 349 349 349 349 349 349 349 349 348 346 345 345 343 344 344 343 344 344 344 344 344 345 346 347 342 340 336 337 337 336 337 340 342 334 333 338 338 339 344 344 344 344 343 342 342 342
349 350 351 352 355 352 353 353 353 353 352 352 351 350 350 349 349 347 347 347 347 347 348 347 348 350 351 352 353 352 352 352 352 351 350 351 350 350 350 349 349 349 349 349 348 346 345 344 345 345 344 344 344 344 344 343 343 343 344 345 344 347 343 339 334 333 333 334 334 334 335 335 334 334 339 339 340 341 342 343 342 343 342 342 341
348 349 350 351 351 353 353 353 353 352 351 351 350 350 349 348 348 347 347 348 347 348 347 348 348 349 350 351 353 353 352 351 351 351 350 350 350 349 349 348 348 348 347 346 345 345 345 343 343 345 344 344 344 344 343 343 343 344 343 344 345 348 340 339 332 332 332 332 333 333 333 332 333 340 341 342 341 341 342 343 342 343 342 342 341
347 349 349 349 350 355 353 352 352 352 351 350 350 350 349 348 348 347 347 347 346 347 347 347 348 348 350 351 352 352 352 352 352 350 350 350 350 349 349 349 349 348 348 348 347 347 345 345 345 344 344 344 343 344 343 343 343 344 344 344 345 347 340 338 336 332 332 332 333 331 332 335 335 341 340 342 342 342 343 343 342 342 341 340 339
346 347 348 349 350 350 354 352 351 351 351 350 350 349 348 348 347 347 347 347 347 347 347 347 348 348 349 350 350 350 350 350 350 350 349 349 350 349 348 348 348 348 348 347 347 346 346 344 342 343 344 344 343 342 343 342 343 342 344 344 346 347 338 332 332 331 332 334 335 335 334 334 342 343 344 344 344 343 343 342 341 340 340 339 338
347 347 348 348 349 350 350 352 352 351 350 350 350 348 348 348 347 347 349 348 348 348 347 347 348 349 350 350 350 350 349 349 349 349 348 349 349 349 348 347 348 348 348 347 347 346 344 345 343 342 343 344 342 342 342 342 342 342 344 345 345 343 338 335 331 332 333 334 336 337 335 338 342 342 342 342 342 342 341 341 340 340 340 339 338
346 347 346 346 347 347 348 348 349 350 350 350 349 348 348 348 349 349 349 348 348 347 347 349 350 350 349 349 349 349 349 349 348 348 348 348 348 348 347 347 347 347 348 347 347 347 345 344 344 343 342 342 342 342 342 341 342 343 344 345 345 340 338 337 332 332 334 338 338 337 337 336 338 341 341 341 341 341 340 341 340 339 338 338 337
345 345 344 345 345 346 346 346 346 346 345 348 349 348 348 348 349 350 350 350 350 349 350 350 349 349 349 349 349 349 349 348 348 348 348 349 348 347 347 347 347 347 347 348 348 347 346 344 344 343 342 342 341 342 340 342 341 344 344 346 344 339 338 338 334 336 337 339 335 337 336 340 342 340 341 340 339 339 339 339 339 339 338 337 337
342 343 344 344 344 345 345 344 344 343 342 342 343 346 347 348 349 349 349 350 349 349 350 349 349 349 348 348 348 348 348 348 347 348 347 347 348 347 347 347 347 347 346 347 347 347 345 345 344 344 342 342 341 342 342 342 344 343 345 347 343 341 341 338 335 335 336 334 334 332 333 341 341 339 340 339 338 338 338 338 337 337 337 336 334
340 341 341 342 343 343 343 343 343 342 341 341 342 343 346 347 348 348 349 350 350 350 350 349 349 348 349 349 348 348 347 345 348 345 347 348 347 347 346 346 346 346 346 346 347 346 345 345 345 343 343 342 342 342 343 342 343 344 345 345 341 339 332 332 334 333 333 333 333 333 339 339 338 338 338 337 337 337 336 335 335 334 334 335 335
339 338 338 339 341 341 341 341 342 342 342 342 342 343 346 347 347 348 349 350 350 350 349 349 349 349 348 348 347 340 338 338 339 340 347 341 348 346 346 346 346 345 345 346 346 346 346 345 345 344 343 343 343 343 343 343 344 345 345 342 339 331 331 332 333 334 333 334 335 333 338 336 336 336 336 336 335 335 334 334 333 333 333 333 333
336 335 337 339 340 340 340 340 341 341 342 343 343 344 346 347 342 342 343 346 348 349 347 345 350 342 348 345 341 344 339 337 338 347 342 344 344 347 346 346 346 345 344 345 345 345 346 345 345 345 344 344 344 336 334 337 341 344 346 341 332 330 331 332 332 332 332 331 334 335 336 335 335 336 335 335 334 334 334 333 333 333 333 333 333
335 335 335 338 338 339 340 341 340 340 342 343 343 344 343 342 341 342 345 347 347 346 343 345 340 341 343 343 342 338 338 338 338 343 342 346 345 346 346 346 346 345 346 345 345 345 345 345 345 345 345 345 340 332 330 327 327 340 341 334 330 330 330 331 331 331 330 332 329 336 336 335 334 334 334 334 334 334 333 331 332 332 332 332 332
337 335 335 338 338 337 338 340 340 341 342 342 342 341 341 341 341 341 342 342 341 342 340 341 340 341 342 339 337 337 334 333 347 347 346 341 342 346 347 346 346 345 345 345 347 345 345 345 345 346 345 342 336 333 331 329 328 326 330 332 330 329 329 330 329 329 330 334 331 336 336 335 334 335 335 335 335 332 330 331 331 331 330 329 330
338 338 337 337 337 337 338 339 340 341 341 342 341 340 340 340 340 340 340 340 339 338 336 336 336 337 337 337 336 338 336 334 333 335 338 336 336 338 340 339 336 335 345 333 333 338 339 335 335 338 336 337 337 334 330 330 330 329 331 332 330 329 329 330 329 328 329 331 333 336 336 335 336 336 336 336 333 332 331 332 332 332 331 331 331
339 336 337 338 339 339 339 340 341 341 342 341 340 342 341 339 338 340 339 339 338 335 335 336 335 337 336 337 337 333 334 334 334 335 337 335 336 336 336 336 334 334 340 335 333 332 331 333 334 335 337 338 338 335 332 333 332 331 329 332 330 329 328 327 328 328 328 329 334 336 336 335 335 335 335 334 334 332 331 332 333 332 331 331 331
337 336 337 338 340 340 340 341 340 341 341 341 341 341 339 339 338 338 337 336 336 334 335 336 337 337 337 339 335 333 333 333 333 335 336 336 335 335 334 335 334 334 336 336 333 333 334 334 334 335 335 338 339 336 334 332 332 332 330 331 329 328 327 327 327 327 328 329 335 336 336 335 335 335 335 335 334 332 332 332 332 331 331 331 332
336 336 337 337 339 340 341 341 340 341 341 342 340 340 339 338 339 341 337 340 336 335 334 335 337 337 337 337 338 335 333 333 334 334 335 335 335 334 333 333 333 333 334 336 334 332 335 334 335 334 336 338 337 335 334 334 333 333 331 329 328 327 327 327 327 327 327 329 331 335 336 337 338 335 334 335 335 335 334 333 333 333 332 332 332
335 335 335 337 338 340 340 339 340 340 340 341 339 338 338 337 336 335 336 341 334 335 335 335 335 336 337 338 339 335 333 333 334 334 335 335 335 334 333 332 331 332 332 333 333 331 332 334 334 334 334 334 333 333 333 333 333 333 330 329 328 327 327 327 327 327 327 328 329 334 336 335 335 338 335 334 335 334 334 334 334 334 334 333 332
335 335 335 335 337 339 339 339 339 339 340 340 338 337 337 336 335 335 335 339 333 333 334 334 334 336 336 336 336 336 334 334 334 335 335 334 334 335 334 333 331 331 332 330 330 330 330 332 333 334 334 333 332 332 332 331 332 331 329 329 328 328 327 327 327 327 327 327 329 334 336 336 337 338 337 336 336 336 334 335 334 333 334 333 332
336 334 334 334 337 338 338 339 340 341 339 338 337 337 338 335 335 334 335 335 334 335 334 334 334 334 335 335 335 337 336 336 335 335 335 335 334 334 333 333 332 332 332 331 329 330 331 332 332 331 332 332 333 333 333 331 329 329 330 329 328 328 327 327 327 327 327 327 328 331 334 336 335 336 340 338 336 336 334 333 333 331 331 332 331
334 334 334 334 335 337 338 339 339 338 338 338 338 337 337 336 337 335 335 335 335 334 334 334 335 334 334 334 334 336 338 336 335 334 335 335 334 334 332 333 333 334 335 333 330 329 330 332 333 332 331 331 332 332 332 330 327 326 330 329 329 328 327 327 327 327 327 327 329 330 331 333 337 336 338 339 338 336 333 332 331 332 333 332 330
334 335 334 335 335 337 338 339 339 337 336 337 337 336 336 337 337 336 335 336 334 334 333 334 333 334 334 334 335 336 336 335 333 333 336 334 333 333 333 333 334 335 335 335 334 332 330 329 329 331 331 331 330 330 330 329 328 328 328 329 329 328 328 327 327 327 327 328 329 329 329 331 331 338 338 337 338 337 333 332 331 334 332 332 331
335 335 335 335 338 339 339 338 337 336 336 336 335 335 336 336 334 332 336 335 334 332 334 332 333 332 333 334 334 336 336 335 335 334 334 333 333 332 332 333 334 335 335 334 334 333 331 329 328 329 334 328 326 327 329 329 331 331 329 330 329 328 328 328 327 327 328 328 328 328 328 329 329 331 333 336 339 338 337 334 331 333 333 331 330
336 336 336 338 339 339 339 337 337 335 338 335 336 336 335 335 334 334 334 335 333 333 333 331 331 331 333 332 334 335 336 336 336 335 335 333 333 332 332 333 334 334 335 335 335 334 331 331 330 328 326 327 327 329 330 330 330 329 330 329 329 329 329 328 328 327 327 327 327 327 328 329 328 329 331 328 338 337 337 335 333 333 331 331 331
336 336 338 339 338 338 339 336 335 335 333 333 333 335 336 334 333 337 332 334 335 333 333 333 332 332 333 333 334 335 335 334 336 335 334 333 333 333 333 334 334 334 334 334 335 333 333 332 331 328 326 327 327 328 329 328 329 330 330 329 330 330 329 328 327 327 327 327 326 327 328 328 328 327 332 325 326 330 337 336 335 334 331 329 329
336 336 337 336 336 336 337 335 334 333 333 333 333 334 334 333 333 335 333 332 333 333 333 334 334 334 332 331 332 335 335 335 337 338 336 335 333 333 333 334 335 333 333 333 333 333 332 331 329 329 329 327 328 328 328 327 328 330 330 330 330 330 328 328 327 326 327 326 325 327 327 327 328 336 329 325 325 328 335 337 333 334 334 330 329
338 337 337 336 335 336 335 334 333 333 332 332 332 333 334 334 333 332 334 332 333 335 335 336 335 334 332 332 331 334 336 336 336 337 337 336 334 333 334 335 334 332 332 332 332 333 332 332 330 330 331 330 328 328 327 326 327 328 328 330 329 329 329 328 328 331 326 325 326 326 327 327 328 330 327 326 325 326 327 333 332 334 332 332 331
337 337 337 337 337 337 337 338 335 334 333 333 332 332 332 332 331 331 330 331 332 333 335 335 336 335 335 334 333 335 336 334 335 336 336 336 334 332 332 334 334 332 331 331 331 332 332 332 330 330 331 330 328 328 328 326 327 327 327 328 328 330 329 330 330 328 327 327 327 328 328 327 328 328 326 326 325 326 325 324 324 323 327 332 331
336 336 336 335 335 335 335 334 333 332 332 331 331 329 329 332 332 329 328 329 331 332 335 336 335 335 336 335 335 334 334 336 334 334 334 335 332 332 332 332 333 332 331 329 329 330 330 330 330 330 329 329 329 328 327 326 325 324 326 327 327 328 330 330 329 328 327 328 329 330 328 328 328 328 327 326 326 325 324 323 325 322 324 331 332
336 335 334 333 332 332 333 331 331 331 331 330 327 326 327 330 329 328 327 327 329 330 333 334 334 335 335 335 335 334 334 335 336 334 334 336 335 331 330 331 332 333 332 331 330 330 330 330 330 330 329 327 327 328 326 326 324 322 323 324 323 326 330 329 328 328 328 329 330 330 329 328 328 328 328 327 326 325 324 323 323 323 324 327 329
331 332 332 331 332 332 331 331 330 330 330 331 329 329 327 326 326 327 328 327 329 328 331 332 333 335 335 335 335 335 334 334 336 334 335 334 334 332 331 330 331 332 333 332 330 332 331 330 329 327 328 327 326 328 327 326 321 320 321 321 320 322 326 327 326 329 328 328 329 330 330 329 328 328 328 327 325 325 324 323 324 323 324 325 326
330 331 332 333 332 331 330 330 329 329 327 330 329 328 329 332 329 328 327 327 330 332 331 332 334 334 334 335 336 335 335 334 334 335 334 334 333 332 331 331 331 331 331 330 330 331 330 329 328 327 326 327 328 329 327 326 319 320 320 317 316 316 318 323 325 327 329 328 328 329 330 329 329 329 328 327 325 324 324 323 324 324 323 324 325
330 329 330 331 332 332 330 329 329 330 329 328 332 329 330 333 332 331 332 331 331 331 330 330 331 331 333 335 335 335 335 335 334 334 334 333 333 332 331 330 330 330 330 329 329 330 331 329 328 328 327 324 325 326 328 327 325 321 314 317 315 315 310 316 320 323 328 327 327 327 329 329 329 329 328 327 326 325 324 324 324 325 325 325 326
330 330 329 329 333 333 333 333 333 333 331 331 334 330 330 330 328 330 329 328 327 327 326 328 328 329 332 330 333 334 334 334 334 333 334 332 332 333 332 331 330 330 330 329 329 330 332 332 330 328 327 326 324 324 326 327 326 327 322 317 313 312 314 315 320 319 324 325 326 327 329 328 328 328 328 327 328 326 325 324 324 326 325 325 326
329 331 331 331 332 333 333 332 331 331 332 333 333 332 330 328 328 327 326 323 324 325 325 326 327 328 330 332 331 332 332 333 333 333 333 333 332 333 333 332 331 330 330 330 330 329 329 331 331 329 328 329 327 324 322 326 327 327 326 324 321 316 316 315 318 314 320 324 324 327 328 328 329 328 328 328 327 327 327 325 325 326 327 326 326
326 327 326 327 328 329 329 329 328 328 329 328 329 331 329 329 328 327 326 324 323 325 327 328 328 328 330 331 332 333 332 332 333 333 332 333 332 332 332 332 330 330 332 331 328 329 331 332 333 330 329 329 328 324 323 323 326 327 327 327 326 325 322 319 315 316 316 321 323 324 325 328 328 328 328 328 327 327 327 327 326 327 328 327 326
325 325 324 325 325 326 326 326 327 327 326 327 328 329 328 327 327 327 328 326 327 327 329 329 330 331 330 331 331 331 332 332 331 332 333 333 334 333 332 330 330 330 331 332 331 331 331 332 331 332 331 330 328 326 325 324 323 323 326 326 326 326 327 324 320 320 317 316 319 323 325 325 326 328 328 328 327 326 326 327 328 327 328 328 327
323 322 322 324 324 325 325 325 325 326 326 327 327 326 327 326 326 326 325 325 326 326 328 329 329 330 329 329 329 329 329 329 331 332 332 333 333 332 332 332 330 329 330 331 332 333 332 332 331 330 328 328 329 329 326 324 324 323 324 325 325 324 325 325 323 321 316 316 316 320 321 324 324 324 325 327 328 327 327 328 329 330 328 328 328
322 323 322 322 323 323 323 323 324 324 324 324 325 324 325 326 325 325 324 323 324 325 325 325 327 327 327 328 328 328 326 328 329 330 329 330 331 331 331 330 328 329 330 330 332 332 333 332 330 330 331 329 328 328 327 326 326 326 324 325 323 324 323 322 321 320 318 319 316 319 321 320 319 323 324 324 326 327 328 328 329 330 330 329 328
320 320 320 320 321 322 322 321 322 323 324 323 324 323 324 324 323 323 323 323 323 323 323 323 326 326 326 326 327 327 326 327 327 328 328 329 329 331 330 330 330 330 330 330 331 332 332 331 330 331 331 329 328 328 327 327 327 326 326 325 324 324 322 320 320 320 320 318 318 318 321 322 321 321 323 325 326 328 328 328 328 330 330 329 329
Wind_Speed
6 10 10 14 16 17 16 15 14 15 15 15 16 17 17 17 17 16 16 16 17 17 17 16 15 14 14 14 14 14 14 13 14 14 14 14 14 14 14 15 15 15 15 15 15 15 15 15 15 14 14 14 14 15 14 14 13 13 14 14 15 15 16 16 17 17 17 16 17 16 15 15 16 16 16 16 16 16 15 15 13 10 7 11 16
10 9 9 12 17 17 17 16 16 15 15 15 16 17 16 17 16 16 16 16 17 17 16 16 15 14 14 14 13 13 13 13 14 14 14 14 14 14 14 15 15 15 15 15 15 15 14 15 15 14 14 14 14 14 14 14 14 13 13 13 14 15 15 16 16 16 16 16 16 16 17 16 16 16 16 16 16 15 15 15 15 7 5 14 15
11 12 9 12 17 18 17 16 16 15 15 15 17 16 16 16 15 15 15 16 16 16 16 15 15 15 14 13 13 12 13 13 14 14 14 14 14 15 15 14 15 15 15 15 14 15 14 14 14 14 14 14 13 13 13 13 13 12 12 12 12 14 15 15 15 15 15 15 14 14 16 16 15 16 16 16 16 15 15 15 15 13 9 15 14
15 10 9 13 18 17 16 17 16 15 15 16 16 16 16 16 15 14 14 14 15 16 15 15 15 14 12 12 12 14 13 14 14 14 13 14 14 14 15 14 14 15 15 15 14 14 14 14 13 13 12 12 11 11 12 13 13 11 10 12 14 13 14 14 15 15 15 15 13 10 5 4 10 15 15 16 16 16 15 15 15 15 15 14 15
13 11 9 9 10 15 16 17 16 15 16 17 16 16 16 15 14 14 14 14 14 15 15 15 14 13 13 12 13 13 13 13 13 14 14 13 13 14 14 14 15 15 15 14 14 14 13 13 13 12 11 9 8 9 12 12 11 10 10 14 11 9 9 14 15 15 14 14 13 8 5 5 5 12 14 16 16 15 15 15 15 14 14 15 14
11 10 9 9 9 12 17 16 17 17 17 17 16 16 15 15 14 14 13 13 13 14 14 14 13 13 13 14 13 13 13 13 13 13 12 13 12 14 14 15 14 14 14 14 13 14 13 13 12 10 9 7 7 9 12 11 10 9 9 10 10 8 7 5 12 14 12 12 10 5 5 5 4 7 15 14 15 14 14 15 14 13 14 15 14
13 9 10 9 8 11 16 16 18 17 17 16 15 15 15 15 14 13 13 12 12 12 13 13 12 12 13 13 14 13 13 13 13 13 13 13 13 12 15 14 14 14 13 13 12 12 12 11 10 9 8 7 6 9 11 11 9 9 9 9 8 6 6 3 3 5 9 6 5 5 5 4 4 4 13 13 14 13 14 14 14 13 12 13 13
10 10 10 9 8 13 16 17 18 18 17 15 15 15 14 14 13 13 13 12 10 11 13 13 12 13 13 12 13 14 14 14 14 14 15 14 13 12 13 14 13 12 12 12 12 11 11 10 9 8 7 6 6 9 10 10 9 8 8 8 8 7 5 4 4 3 10 5 5 5 5 5 3 4 12 12 12 12 13 14 13 13 13 14 13
10 10 10 8 9 16 16 16 18 18 16 15 14 14 14 13 13 13 13 12 11 11 11 13 13 12 11 11 12 13 13 14 14 15 13 13 13 12 12 12 12 12 11 10 9 9 10 9 8 7 6 6 6 7 9 9 8 8 7 7 7 6 7 6 16 19 8 5 5 5 5 5 5 4 10 12 12 11 12 10 11 14 13 13 13
10 9 9 8 8 14 15 16 16 17 16 15 14 14 14 13 12 13 13 12 12 11 12 12 12 12 11 10 11 12 13 13 14 14 13 13 13 12 11 11 11 11 10 10 10 9 9 8 8 7 7 6 6 7 8 8 8 8 7 7 7 7 5 13 15 12 6 5 6 5 6 8 4 5 10 11 11 11 10 12 10 10 11 13 14
10 10 8 9 11 14 15 15 15 15 16 15 14 14 13 12 13 12 12 13 12 11 11 12 11 11 10 10 9 11 13 13 13 13 12 12 12 12 12 11 10 10 10 10 10 10 9 8 7 7 7 6 5 6 7 8 8 8 8 8 8 7 8 13 11 6 7 6 5 5 9 12 5 4 11 11 13 15 14 13 14 14 13 12 12
11 10 8 8 15 14 15 15 15 15 15 14 14 13 12 12 12 12 12 11 12 12 11 11 10 11 11 10 11 12 12 12 12 12 12 12 11 11 12 11 11 10 10 10 10 9 8 6 6 6 6 6 6 7 7 8 8 8 8 10 11 10 10 13 8 6 6 6 5 5 6 4 3 8 13 12 12 12 14 15 15 15 14 14 13
11 10 9 9 9 14 15 15 16 16 16 15 14 13 12 12 12 12 11 10 11 11 11 11 11 10 10 11 12 12 12 11 11 11 11 11 11 11 11 11 10 10 10 10 9 8 7 6 6 5 6 6 6 7 8 8 8 9 11 10 10 8 14 13 7 7 5 5 4 5 5 4 4 12 13 13 12 11 12 13 14 15 14 14 14
11 10 10 10 9 17 15 15 14 15 15 15 14 12 12 12 12 12 11 10 11 10 10 11 11 11 11 11 11 10 10 10 9 11 11 10 11 11 11 11 10 10 9 9 9 7 6 6 5 5 6 6 7 7 7 8 9 10 9 9 8 8 14 9 7 6 6 5 4 4 3 2 3 11 13 13 12 11 13 15 15 15 15 13 13
13 12 11 10 11 10 17 15 14 14 13 13 12 12 13 12 12 11 10 11 10 10 10 11 11 11 11 10 10 10 10 10 11 11 10 10 11 11 11 11 10 9 8 8 8 6 6 6 5 5 5 6 6 6 7 8 8 8 8 8 7 6 12 6 5 5 6 4 3 4 3 3 11 13 14 14 13 12 14 14 14 14 13 12 12
13 12 10 8 9 10 10 14 15 13 13 13 13 14 13 12 11 10 8 9 9 9 10 10 10 11 10 8 8 9 9 9 9 9 10 10 10 11 10 10 10 9 8 7 8 6 5 5 4 4 5 6 5 5 6 6 6 7 8 8 9 13 13 8 5 4 4 4 4 4 4 4 10 11 13 13 12 12 13 14 13 13 13 12 11
10 10 9 8 9 8 8 8 10 15 12 13 13 13 12 11 9 8 9 10 11 11 10 11 12 11 9 8 8 8 8 8 9 9 9 9 9 10 10 10 10 9 8 7 6 6 5 4 4 4 5 5 4 4 5 5 5 7 8 8 9 14 13 11 6 4 4 4 4 3 3 3 9 11 13 13 12 12 12 13 13 13 12 11 11
9 8 8 7 7 7 6 6 7 7 7 10 12 13 12 10 8 9 10 10 10 11 12 12 11 10 10 9 8 8 8 7 7 7 7 7 9 9 9 9 9 8 7 6 6 5 4 3 3 4 4 4 4 4 4 4 4 5 6 8 12 14 14 11 6 5 4 5 4 3 3 6 9 10 12 12 11 11 11 11 12 11 11 11 11
8 8 7 7 7 7 6 5 6 5 6 5 4 9 12 10 9 10 10 10 11 12 12 12 12 10 9 9 8 8 7 7 7 7 6 6 8 8 8 9 8 7 6 6 5 5 3 2 3 4 5 5 5 4 4 3 4 4 7 8 13 13 13 7 6 5 5 4 4 3 3 8 8 10 10 11 11 11 11 11 10 10 10 10 10
7 7 6 5 6 6 5 6 6 6 5 5 5 4 10 12 10 11 11 11 12 11 11 11 11 10 10 9 8 5 5 4 6 4 5 5 6 5 6 7 7 7 5 4 5 4 2 1 2 4 5 6 6 5 5 4 3 4 8 10 12 11 6 5 6 6 5 4 3 4 6 8 9 10 10 10 11 11 10 9 9 9 9 10 10
6 6 5 5 5 6 6 6 6 6 6 6 5 5 8 11 9 11 12 12 10 10 10 10 10 9 8 8 7 4 3 3 3 3 5 3 5 6 6 6 6 6 5 4 4 3 2 1 2 3 6 7 7 7 6 5 4 3 7 9 11 7 5 5 6 5 4 5 4 5 9 9 8 9 9 9 9 9 9 9 9 9 9 9 10
6 5 5 6 6 6 7 6 6 7 6 5 4 4 4 7 4 4 4 7 8 8 6 4 5 3 8 6 4 4 3 3 3 5 3 4 4 6 7 7 6 5 4 3 2 2 2 2 2 4 6 7 8 4 4 5 5 4 7 8 8 6 5 5 5 5 5 4 4 6 10 8 9 9 9 8 8 9 9 9 10 10 10 10 10
6 5 6 8 6 6 6 6 6 6 7 6 5 5 5 5 5 5 5 7 6 5 4 4 2 3 4 4 3 1 1 2 3 3 3 6 5 8 8 8 7 5 4 3 2 2 2 2 3 5 6 6 4 4 4 4 4 7 7 6 6 5 5 5 4 5 5 4 4 9 10 8 7 9 9 9 9 9 8 8 9 10 10 9 9
6 7 7 6 7 6 6 6 7 7 7 6 5 5 5 5 5 5 5 5 4 4 4 4 4 3 4 4 4 2 1 1 4 6 8 3 4 8 10 8 7 6 6 3 1 0 3 3 3 5 4 2 3 4 4 5 4 3 2 6 5 5 5 5 4 4 5 5 4 11 10 10 9 8 9 10 10 8 7 8 9 9 8 8 8
7 7 6 6 6 6 6 6 6 6 6 6 5 5 5 5 5 5 5 4 4 3 2 1 2 3 4 3 3 3 2 1 1 3 1 3 2 2 4 4 4 3 5 4 3 1 0 0 1 3 3 2 3 4 3 5 4 2 3 4 6 5 5 5 4 4 5 5 5 12 11 11 10 10 10 10 9 8 10 9 9 9 10 10 9
7 8 6 6 6 7 7 6 6 6 6 6 5 4 5 5 5 5 4 4 4 4 3 3 2 3 2 2 2 2 2 1 1 2 0 2 3 4 4 4 4 3 3 4 4 3 2 2 2 2 4 2 3 4 4 3 5 4 5 3 6 6 6 5 4 4 5 5 6 13 10 9 9 9 8 9 9 8 8 8 9 10 9 9 9
6 7 6 5 6 7 7 6 6 6 7 6 4 4 4 3 3 4 5 4 4 3 2 2 2 2 3 3 4 2 2 2 2 1 0 0 3 3 4 4 4 4 3 4 3 3 3 4 4 3 3 3 4 4 5 3 4 5 4 4 5 6 6 5 5 5 5 5 6 13 11 10 10 10 9 9 10 9 8 8 9 9 9 7 9
7 6 5 5 6 8 7 7 6 6 6 6 5 3 3 4 4 4 4 5 4 3 2 2 1 1 2 4 3 3 4 4 3 2 3 0 2 2 2 2 3 3 3 4 4 4 4 4 3 3 3 4 5 5 5 4 4 5 3 5 5 6 6 6 5 5 5 5 4 10 11 11 8 9 7 10 9 10 9 9 9 10 9 9 9
8 6 5 6 5 6 7 8 7 7 7 7 5 3 3 4 4 4 4 4 3 4 4 2 2 2 2 4 5 5 4 3 4 4 2 3 3 3 2 2 2 4 4 4 4 4 4 4 4 4 4 4 5 5 5 6 5 6 2 6 6 6 6 6 5 5 5 5 6 8 12 10 4 7 9 9 9 9 9 9 9 9 9 9 9
6 6 6 5 4 5 6 7 6 7 7 7 5 5 4 5 5 5 4 5 4 3 3 3 4 4 3 3 3 4 4 4 4 4 4 3 2 3 2 2 2 3 4 5 5 5 5 4 4 4 4 4 5 5 4 6 6 8 4 8 8 8 7 7 6 6 5 5 6 6 12 9 7 5 9 10 10 9 8 10 8 8 9 8 8
7 6 5 4 4 5 5 6 5 6 6 7 6 5 4 3 4 4 4 5 4 4 4 5 4 4 4 2 2 2 2 3 4 4 4 4 4 2 3 2 3 3 4 5 3 5 5 5 5 5 5 5 5 5 4 5 5 6 5 8 8 7 7 6 6 6 5 5 6 5 6 11 10 10 6 9 9 10 9 8 8 7 7 8 8
7 6 4 4 5 5 6 5 5 6 6 6 5 5 5 5 4 4 5 4 4 5 5 5 4 4 2 2 2 3 4 4 3 4 4 4 4 4 2 3 5 3 3 3 2 2 3 4 4 3 4 4 5 5 3 3 5 4 1 7 7 8 7 7 7 7 6 5 5 5 5 5 10 11 9 9 9 9 9 8 7 9 8 8 8
4 6 6 6 6 5 6 5 5 5 6 6 6 5 4 4 3 4 3 2 3 3 3 3 2 3 2 2 3 3 3 3 4 3 3 4 3 3 4 5 5 4 4 3 2 2 1 1 2 1 2 1 1 3 3 1 4 8 9 4 6 7 7 7 7 6 7 6 6 5 5 4 4 8 9 10 10 10 9 8 7 11 9 9 9
8 6 7 7 5 4 5 5 4 5 5 5 4 4 4 3 2 3 3 1 0 2 4 4 3 2 2 3 3 4 4 4 4 4 4 4 4 4 5 5 4 4 3 2 4 3 3 1 1 2 2 1 1 1 2 3 3 2 6 6 6 7 7 7 7 7 7 6 5 5 5 5 5 5 4 10 8 5 9 9 9 10 9 8 9
8 8 8 9 9 7 6 5 5 4 4 4 4 4 3 2 2 3 3 1 1 3 3 1 2 2 3 4 4 4 4 4 3 4 3 3 4 4 5 5 4 4 4 4 4 4 3 4 2 3 1 0 1 1 1 1 2 3 2 5 6 7 7 7 7 7 7 6 6 5 5 5 5 4 5 3 6 6 9 10 10 11 9 10 10
7 7 8 8 8 7 7 5 5 4 3 3 3 3 3 3 2 3 2 1 1 2 3 3 2 3 3 3 4 4 3 3 3 3 3 3 4 5 6 4 4 4 4 4 4 4 4 3 2 2 3 3 1 1 4 4 3 1 1 0 8 5 8 7 7 7 7 6 6 6 5 5 5 5 4 3 3 4 9 10 6 8 10 9 8
6 7 8 8 7 6 6 6 6 4 3 3 2 2 3 3 3 2 2 2 2 3 4 4 3 4 4 4 3 3 3 4 4 4 4 4 4 5 5 5 5 5 5 5 5 4 4 3 2 2 3 4 4 3 4 6 3 2 1 2 4 8 6 8 7 7 6 7 6 6 5 5 5 6 5 5 4 3 5 8 8 4 7 10 9
6 6 6 8 7 5 5 5 4 4 3 4 3 3 3 2 2 2 2 3 3 3 4 3 4 4 2 4 3 3 3 4 4 4 5 5 5 5 5 3 2 5 5 5 4 3 3 4 4 4 4 5 4 5 6 5 3 3 3 3 7 4 5 8 5 7 8 7 6 6 7 6 5 5 5 5 4 4 3 7 10 8 9 9 8
4 5 5 6 6 6 5 5 5 5 4 3 2 1 1 0 0 0 2 3 4 3 3 4 4 4 4 4 3 4 4 3 4 4 5 5 5 5 4 4 4 4 6 6 5 4 5 5 6 5 4 4 4 5 6 4 3 4 3 4 4 2 2 3 8 3 7 8 8 7 5 6 5 5 5 5 5 4 4 4 4 4 6 11 9
3 5 5 5 6 6 5 5 4 4 4 3 3 2 1 0 1 2 4 4 5 3 3 5 5 5 5 5 4 4 4 4 4 4 4 4 5 5 5 5 5 5 7 7 7 6 7 6 7 7 6 3 3 4 3 3 3 2 2 3 4 1 3 2 2 6 2 7 7 6 6 5 5 5 5 5 5 5 4 4 4 4 3 9 11
4 4 4 5 4 5 6 6 3 4 4 4 2 2 1 1 1 3 4 4 3 3 4 4 5 5 5 5 5 5 4 4 4 4 5 5 5 5 5 5 6 6 6 7 6 5 5 5 5 5 7 5 3 3 2 4 4 1 2 4 4 2 2 1 1 3 4 3 5 6 6 6 6 6 6 5 5 5 4 5 4 4 4 5 7
3 3 3 3 4 4 5 4 4 3 3 2 2 1 2 2 3 4 4 5 4 3 5 5 5 5 5 4 4 4 4 5 5 4 5 5 6 5 5 6 5 5 6 5 4 5 4 5 5 5 4 7 5 6 4 4 2 5 5 4 0 2 3 3 2 3 5 5 5 6 6 7 7 6 5 5 5 6 5 5 5 5 4 5 5
3 3 2 3 4 3 4 4 3 3 2 2 1 1 2 3 3 3 4 3 4 4 4 4 3 4 5 5 5 5 5 6 5 5 5 5 6 6 6 6 5 6 7 7 5 5 6 7 7 6 4 2 4 6 8 8 4 3 2 3 3 3 3 4 4 4 6 7 5 6 7 7 8 7 6 5 6 5 5 5 5 5 5 5 5
3 2 2 3 3 3 3 2 1 0 0 0 1 3 3 3 3 3 3 3 4 2 2 3 2 2 4 5 5 6 6 6 5 5 5 6 6 7 6 4 5 4 5 6 7 7 7 7 6 6 4 4 4 5 6 7 5 8 3 6 3 3 2 7 7 5 7 6 7 7 6 7 7 6 5 6 6 6 6 6 6 6 6 5 5
4 3 3 2 2 2 2 1 0 2 2 2 2 2 1 2 2 3 2 3 2 3 3 4 2 2 3 4 7 5 6 6 5 6 6 7 6 6 6 6 6 6 5 5 7 9 5 5 6 6 7 8 7 5 5 5 7 8 7 4 1 2 5 3 6 4 4 4 6 7 7 7 7 7 7 7 6 7 7 7 6 6 6 6 5
7 6 6 6 6 7 7 7 7 6 6 5 4 3 3 2 1 3 4 3 4 5 5 4 4 4 4 4 2 4 5 4 5 5 4 3 6 6 7 6 6 5 5 6 6 5 7 10 7 8 8 8 7 5 5 5 8 8 7 5 5 5 5 3 5 5 2 3 4 6 8 8 7 8 7 7 7 7 6 7 7 7 6 6 6
6 5 7 8 9 8 8 7 6 5 5 5 6 6 5 5 3 2 1 2 2 3 3 4 4 4 3 4 4 4 3 4 4 3 4 4 5 6 6 6 4 2 4 6 7 8 7 8 6 6 8 8 6 7 8 7 4 6 7 7 3 1 2 6 5 3 3 3 4 5 5 6 7 8 8 8 8 7 6 7 7 7 7 7 7
5 7 8 8 8 7 8 7 6 6 5 5 7 7 6 5 5 5 5 7 6 6 6 5 5 4 5 6 6 5 4 4 5 6 4 4 4 5 5 5 5 6 6 7 8 8 7 6 7 9 7 6 7 8 8 6 8 6 7 8 7 3 3 2 1 7 5 6 5 3 3 6 6 8 9 8 8 8 8 7 7 7 7 7 7
5 7 6 6 6 5 6 6 7 6 6 7 7 7 6 5 5 5 6 5 5 5 5 5 6 6 6 6 6 5 4 2 2 3 4 5 5 5 5 5 4 5 6 7 7 8 9 8 7 6 6 7 7 8 5 6 6 7 6 8 7 6 5 4 2 1 3 5 5 8 6 4 4 5 6 6 7 7 8 8 8 8 7 7 7
5 6 4 5 5 4 6 7 7 6 6 7 7 7 7 6 8 8 8 7 6 6 6 7 6 5 6 7 6 5 4 4 4 3 3 3 3 4 5 5 5 6 6 7 8 8 9 7 7 8 8 7 5 5 6 5 7 6 4 6 8 7 6 4 5 4 1 3 5 8 7 9 9 7 6 7 7 7 7 7 8 8 8 7 7
5 5 6 7 6 6 7 10 8 6 7 7 6 7 6 7 7 7 7 8 8 8 9 9 7 7 7 6 6 6 5 6 5 5 4 4 3 3 4 5 5 6 7 7 6 7 7 6 4 6 6 7 6 8 8 7 6 6 7 6 8 8 9 9 9 7 6 4 4 5 7 9 11 8 8 8 7 7 7 7 8 8 8 8 7
Wind_Direction
149 138 137 136 133 131 133 127 126 124 119 115 112 111 108 106 105 102 101 100 100 100 99 97 94 92 91 89 85 84 82 86 85 83 89 94 96 98 100 100 100 98 96 95 96 94 89 87 86 86 88 88 88 88 86 84 82 82 87 92 90 90 89 87 84 81 82 78 77 75 74 77 78 78 79 76 74 73 73 71 66 63 61 68 69
151 139 138 140 136 134 130 127 127 125 119 115 114 111 107 106 105 106 106 104 104 103 102 100 99 98 96 92 90 88 86 82 87 91 93 96 98 99 99 99 99 100 99 98 94 91 93 89 88 86 87 87 87 87 85 83 82 85 85 92 98 94 90 86 83 80 78 78 76 74 71 72 76 79 79 78 76 75 74 73 69 61 62 71 71
134 140 141 145 138 133 129 126 125 123 119 117 115 111 108 107 108 111 109 107 107 107 105 102 101 101 99 96 94 93 91 92 94 98 99 100 102 101 101 101 100 99 98 95 94 93 91 91 90 89 88 91 91 89 87 83 83 82 84 85 85 93 87 81 78 78 76 71 65 65 74 78 74 78 82 82 78 74 72 72 73 70 71 69 68
135 140 140 143 135 130 128 125 125 122 120 119 114 111 111 112 114 114 111 110 110 109 106 104 104 105 101 98 97 91 91 96 99 100 100 101 102 103 102 100 100 99 97 95 93 89 87 88 87 87 85 86 91 93 89 83 78 75 78 79 79 82 85 85 82 79 79 78 68 55 41 41 73 75 79 83 81 76 75 74 74 75 72 70 69
133 136 137 132 128 126 125 124 124 123 121 119 115 115 117 118 119 117 114 112 112 112 110 108 108 106 104 106 100 97 99 101 103 103 103 102 100 101 102 101 99 99 99 97 97 96 94 86 84 83 89 86 88 90 88 87 85 80 75 83 78 67 60 88 86 75 73 74 68 53 38 45 59 79 79 76 78 76 74 74 73 73 73 72 71
131 128 126 123 127 126 126 127 126 125 124 121 120 122 123 123 123 120 116 114 112 112 112 111 112 110 109 105 97 97 101 104 105 102 97 95 98 102 102 102 101 99 98 97 94 90 86 84 83 84 81 77 69 74 77 78 79 74 66 77 94 83 55 54 94 63 62 74 63 43 38 46 53 73 78 81 81 80 81 79 75 72 73 75 74
123 124 128 126 127 131 130 129 128 128 126 126 128 128 127 125 123 121 116 113 110 110 112 113 113 112 111 108 103 102 103 105 105 102 98 98 95 98 101 99 97 94 93 94 94 93 91 88 86 84 81 73 59 57 61 66 64 57 53 57 68 77 95 94 278 69 69 64 66 50 41 43 43 61 81 79 79 80 83 86 85 82 86 88 85
119 124 124 125 132 133 131 130 129 129 130 133 133 129 126 122 121 119 116 110 102 101 110 112 111 111 109 107 106 108 108 107 106 103 99 94 97 99 99 93 87 86 87 89 92 96 98 98 96 92 86 78 61 53 59 59 58 59 56 53 46 40 8 345 302 160 115 89 82 76 65 54 57 75 81 76 80 86 91 89 84 85 87 86 80
121 122 120 122 131 132 130 129 132 133 134 134 130 126 123 120 119 120 116 109 102 93 101 109 108 109 107 106 107 107 108 108 107 104 98 102 99 92 87 89 85 81 82 86 90 91 95 97 93 94 95 81 61 52 54 55 60 56 53 46 39 21 358 29 95 110 112 95 87 81 77 60 55 63 83 86 88 88 83 80 87 89 85 86 90
116 112 114 122 129 130 129 130 133 133 132 128 125 124 121 118 117 119 117 111 107 98 101 105 104 103 103 105 108 108 108 108 109 107 104 99 96 95 91 89 90 91 95 99 104 104 100 96 99 92 83 72 57 51 56 55 51 48 41 36 25 14 20 88 93 95 99 95 90 85 85 84 73 84 93 98 98 92 90 98 105 99 91 89 91
112 116 117 125 130 129 127 129 129 130 128 125 124 122 118 115 113 114 117 116 117 112 108 111 101 94 91 104 110 112 110 109 110 109 105 100 93 90 90 87 86 88 87 92 95 93 88 85 84 83 82 71 61 56 55 54 45 41 31 22 10 12 69 88 84 88 89 89 85 83 89 84 80 76 93 91 88 80 93 98 97 99 94 87 88
122 124 124 128 132 128 128 127 129 128 128 126 125 123 118 115 114 115 118 121 125 122 114 113 99 88 83 92 109 115 112 109 112 110 105 100 97 93 92 90 88 88 88 87 85 85 86 87 83 83 79 71 60 53 50 50 42 36 27 21 10 356 88 92 91 89 89 89 87 85 77 79 87 104 105 104 97 90 90 92 94 92 88 83 87
130 130 132 132 131 132 131 131 131 131 131 129 129 126 121 120 118 118 119 124 131 125 114 106 93 87 84 92 106 112 114 113 114 111 106 100 97 94 93 93 93 94 95 94 93 94 93 88 82 76 74 66 59 53 46 41 33 29 25 17 11 20 102 98 96 96 94 91 86 86 97 109 115 108 105 104 98 94 90 87 86 87 83 77 77
130 134 138 137 138 138 134 133 133 135 135 135 132 127 125 124 124 124 126 131 136 122 108 101 95 89 84 80 89 100 111 117 118 116 109 103 97 93 91 91 95 96 95 97 94 88 85 77 69 64 58 54 47 44 42 33 28 25 21 13 17 29 104 98 97 98 99 94 86 85 91 112 118 107 107 106 109 109 100 89 82 80 78 74 73
133 139 143 142 140 138 139 137 138 137 137 131 126 125 126 127 129 131 133 133 131 116 109 102 98 98 93 91 93 100 112 122 124 121 116 106 97 93 91 91 92 93 92 87 87 83 74 65 53 47 50 49 43 40 36 34 27 19 16 14 6 77 109 101 95 98 97 93 90 93 88 80 100 104 106 106 102 98 92 89 87 86 83 78 76
135 141 140 135 133 139 140 143 139 137 133 129 125 129 133 133 134 137 131 120 114 109 107 106 106 104 98 94 94 101 109 114 114 114 113 108 97 93 92 91 90 89 88 91 85 76 64 58 43 25 36 34 34 26 32 32 26 19 18 3 72 112 111 105 93 80 87 89 87 90 94 88 96 106 102 100 100 97 97 95 94 94 89 85 83
134 130 126 126 126 128 138 140 139 136 127 125 126 130 131 128 127 127 117 116 115 112 113 112 108 110 110 104 103 104 102 102 106 109 112 109 102 91 91 90 87 89 93 88 86 81 63 45 30 12 11 25 12 11 19 25 24 28 18 9 82 107 116 111 105 94 90 93 92 76 85 104 112 107 107 105 105 102 97 95 96 96 94 91 91
122 119 119 117 117 123 125 127 128 116 119 123 125 124 125 120 115 112 110 110 110 109 106 111 115 120 122 121 116 110 101 94 90 95 94 87 94 92 89 89 88 88 88 98 95 83 66 39 6 357 353 356 349 352 15 358 25 31 27 33 110 119 118 114 110 108 102 99 85 87 85 104 108 114 109 109 104 100 99 99 98 97 99 100 95
110 107 109 118 123 120 115 102 99 95 93 95 101 126 124 122 116 116 115 115 116 119 118 119 125 130 132 134 132 118 110 101 91 92 91 93 97 97 91 90 91 90 90 93 100 97 69 38 351 332 334 334 327 339 332 341 20 33 41 53 105 115 114 109 110 109 103 104 106 97 116 126 125 119 118 112 113 111 107 104 102 102 102 105 103
108 114 117 121 123 117 102 98 95 92 87 87 100 118 129 134 122 125 120 119 122 124 129 133 138 142 143 140 131 114 106 112 112 110 111 104 112 107 99 92 90 94 92 96 94 100 106 0 329 322 315 313 314 319 318 338 350 32 59 63 99 104 102 107 115 114 119 122 121 127 126 126 127 127 126 122 116 110 103 107 111 108 108 108 109
127 129 123 118 115 109 99 99 104 107 103 102 111 124 135 138 133 133 135 125 126 133 141 147 146 149 142 133 112 102 117 125 139 147 146 140 136 129 120 114 94 91 96 101 117 122 131 193 299 300 304 302 306 309 313 316 316 51 72 88 105 109 121 122 122 126 124 125 127 145 135 131 130 129 123 126 124 115 118 123 122 120 115 113 118
140 126 119 128 125 119 119 121 123 120 119 119 125 128 133 127 125 123 128 133 138 147 149 154 150 146 149 137 139 153 171 172 181 168 162 157 147 145 139 122 118 107 105 111 134 145 171 189 257 277 288 293 298 316 325 318 328 38 85 114 122 129 131 129 129 135 130 134 136 139 137 143 137 128 128 126 126 125 123 122 125 125 122 119 113
132 130 140 140 132 132 133 134 132 130 126 128 130 134 134 134 128 131 139 140 144 149 157 153 154 166 153 145 112 77 210 200 183 189 186 167 163 155 149 143 133 136 130 137 122 173 213 211 249 271 276 287 306 318 314 317 323 64 87 103 122 131 130 127 137 140 141 143 141 144 142 133 131 135 138 133 129 129 136 139 128 124 124 120 120
132 141 143 135 136 137 140 141 140 139 133 137 134 142 147 138 141 140 144 149 153 149 161 171 191 178 149 125 117 123 87 323 271 221 191 186 175 165 157 152 150 146 159 130 88 228 236 251 255 275 291 309 313 308 313 311 315 80 79 120 122 129 131 136 155 153 146 142 145 142 142 142 141 137 130 134 135 137 140 132 129 121 123 133 132
130 131 130 140 144 141 143 148 144 138 133 136 143 153 155 147 149 151 153 151 151 147 125 132 147 145 143 134 144 157 169 180 309 331 276 172 180 157 149 134 130 152 155 148 138 162 318 315 318 302 299 300 310 298 306 306 309 28 110 143 136 140 140 146 164 160 150 143 149 149 150 150 148 141 139 136 138 139 140 136 131 130 132 132 126
126 125 129 129 142 150 149 148 142 139 131 136 148 160 153 157 162 157 144 148 143 153 170 163 171 153 140 124 123 145 184 184 134 293 336 186 182 193 169 152 149 177 174 161 155 177 209 199 199 260 274 292 278 279 274 277 291 305 114 183 153 152 148 153 168 169 153 153 159 153 149 146 148 146 145 143 136 141 138 135 131 132 130 133 133
125 119 124 127 134 140 139 135 131 134 128 129 137 144 152 149 131 133 139 150 145 145 162 181 194 163 138 140 145 183 194 196 208 256 274 221 208 206 187 173 169 180 196 165 174 189 200 199 198 220 250 269 271 270 268 257 257 269 124 179 174 150 150 156 167 170 160 160 159 153 151 150 154 154 152 145 143 145 138 139 140 137 140 136 133
111 120 120 126 132 133 128 118 126 128 128 130 121 114 117 132 139 138 140 148 136 145 181 223 232 194 176 163 158 174 193 197 209 232 225 278 240 204 182 189 180 191 194 180 184 195 207 212 208 205 219 243 257 262 271 259 255 265 134 165 170 148 151 155 168 169 163 163 156 154 153 167 187 151 161 147 150 148 150 149 151 151 147 146 141
118 126 128 127 125 121 117 119 123 122 123 125 118 126 139 134 129 146 152 159 142 160 187 215 251 236 214 171 164 172 198 205 202 218 216 208 204 191 142 177 212 218 189 203 193 196 207 213 220 217 201 223 237 253 258 272 269 270 169 166 167 153 150 155 165 171 166 165 155 154 160 173 187 151 162 162 159 154 157 153 154 152 146 146 138
134 134 136 127 113 108 113 121 125 122 124 124 140 150 175 163 164 181 175 164 175 187 183 208 219 227 228 200 190 171 187 194 208 214 212 231 224 202 191 175 185 230 221 208 196 189 207 209 227 230 219 222 235 242 242 264 265 259 165 167 170 164 159 159 167 173 171 166 160 157 164 171 175 161 165 167 160 158 163 155 152 151 143 143 141
128 136 135 119 114 110 109 119 121 120 128 131 144 158 185 198 189 185 193 185 169 181 207 217 216 220 220 201 211 198 193 216 206 206 208 207 225 212 223 245 231 232 225 225 185 195 198 206 211 220 226 229 235 240 236 256 268 252 159 168 168 157 159 162 166 169 168 168 162 157 169 173 180 180 183 157 168 164 167 157 161 157 151 143 146
137 150 131 114 115 120 128 127 126 131 131 137 144 162 185 198 213 203 203 195 158 179 211 225 220 228 222 204 207 215 205 213 207 206 200 194 208 211 215 225 250 240 234 240 199 181 210 229 222 218 229 226 239 254 271 320 332 318 274 171 162 162 163 166 171 171 166 167 162 154 156 170 186 187 157 160 171 177 171 161 166 159 153 159 154
148 151 139 131 134 137 131 140 140 132 140 149 160 176 190 198 206 226 235 205 149 156 204 217 208 218 201 193 217 222 223 211 221 222 216 211 206 216 229 229 232 240 254 256 234 181 188 263 278 304 290 298 336 14 26 45 13 349 322 254 168 166 164 166 170 167 167 166 164 158 159 169 169 167 167 176 184 188 173 162 170 152 159 159 159
154 156 143 139 141 138 142 143 138 140 151 155 156 175 196 201 211 247 250 248 143 201 207 199 209 215 196 208 219 231 224 220 214 226 217 212 206 212 229 236 226 217 221 250 269 253 232 238 277 16 55 88 155 207 34 30 39 0 310 253 201 173 168 170 171 171 165 168 163 159 167 166 169 165 179 187 195 217 154 156 172 164 164 166 170
149 152 146 141 145 150 154 138 145 152 154 158 167 184 192 189 210 242 253 239 222 241 256 217 203 214 194 212 216 222 224 220 223 225 231 220 229 230 228 228 217 221 216 211 223 250 236 235 223 263 254 257 170 107 109 142 190 216 291 307 256 177 172 173 168 163 169 166 159 165 167 171 171 177 180 198 196 158 161 167 178 171 172 170 168
137 136 134 137 142 147 148 132 146 152 140 155 181 188 178 193 203 223 242 229 218 261 267 233 205 203 199 203 207 212 214 225 229 230 241 229 230 241 245 246 210 212 230 229 212 224 230 244 228 174 236 266 253 198 161 202 253 87 142 69 299 269 179 168 168 168 167 161 168 166 168 174 176 179 178 177 168 164 173 181 180 160 172 163 169
138 141 141 135 138 142 138 139 147 153 152 162 169 184 181 197 204 224 228 223 222 245 252 254 237 212 202 205 206 211 212 214 219 217 224 231 228 235 245 246 252 223 202 199 208 207 203 220 218 186 188 236 222 219 202 204 170 138 293 210 240 297 284 172 170 167 158 165 169 167 167 180 183 186 168 166 172 174 175 163 155 156 145 162 179
141 135 136 137 140 142 137 144 142 154 162 174 189 189 194 173 192 199 213 221 229 223 236 242 254 248 222 220 206 214 219 213 215 210 218 227 227 229 241 237 279 289 278 256 234 188 205 197 215 203 199 208 223 215 223 213 156 168 225 209 222 215 324 306 177 158 164 164 166 175 181 178 180 182 170 171 177 173 173 162 165 171 164 159 188
103 107 110 115 124 133 140 151 147 150 161 159 153 131 160 122 58 216 295 280 270 246 227 227 231 227 226 226 216 221 226 220 214 207 208 223 225 233 222 229 204 213 252 252 239 209 199 198 210 209 202 207 191 204 217 211 168 181 187 201 234 106 139 321 313 200 165 168 170 179 167 180 184 178 178 176 176 175 167 172 157 158 160 166 188
81 92 95 105 112 113 115 103 97 103 102 91 89 83 62 339 260 309 293 269 262 257 231 222 214 210 215 209 215 214 221 221 219 212 215 221 219 217 210 208 230 213 208 220 218 206 201 195 207 205 206 208 200 188 198 170 195 215 202 95 42 317 172 197 124 319 262 160 172 164 175 178 182 182 181 180 175 173 168 169 161 148 166 172 178
75 88 103 104 101 113 113 104 89 86 99 103 95 125 146 294 300 238 243 245 238 233 242 231 223 221 210 205 205 208 209 220 220 210 222 230 228 230 219 217 210 218 219 228 225 218 207 201 201 198 201 197 200 201 202 156 144 135 76 68 80 282 338 77 48 139 291 243 162 169 170 168 184 184 187 177 174 170 170 170 167 152 167 170 172
77 78 89 100 97 92 98 105 88 93 113 144 189 179 191 182 183 218 224 242 240 233 245 242 226 229 225 220 217 212 213 219 223 219 228 228 236 233 230 228 216 223 233 240 235 225 212 207 191 210 205 197 197 185 194 117 157 173 165 156 309 298 308 316 209 185 192 239 183 171 171 178 182 188 180 176 177 173 173 173 168 164 172 170 172
88 77 58 86 84 86 96 101 107 127 148 153 141 203 241 245 210 245 202 256 250 241 233 241 230 220 227 226 218 212 207 212 214 213 223 227 232 236 238 233 220 213 224 233 234 232 208 213 199 202 205 211 188 181 178 187 166 141 95 117 213 185 271 267 238 215 192 193 191 177 178 182 187 183 181 177 176 179 177 175 173 171 175 178 175
83 69 53 71 68 75 73 62 39 21 14 214 206 222 222 265 283 258 270 224 258 265 254 271 264 268 257 233 225 210 202 204 197 203 213 217 219 228 240 240 244 225 228 231 232 232 218 213 207 214 197 207 202 216 185 188 154 141 173 207 196 145 196 226 204 210 198 179 180 187 181 190 188 182 173 186 185 181 183 177 180 179 179 184 179
78 89 93 62 67 77 100 118 99 340 336 310 276 252 248 296 318 328 347 343 352 348 343 313 276 231 233 224 230 210 204 207 202 200 204 211 216 226 235 229 236 238 225 236 232 238 232 240 217 202 201 214 223 206 209 192 192 189 147 122 92 224 218 200 167 237 176 177 196 185 191 187 186 185 189 199 184 186 181 184 186 181 185 186 183
39 35 47 50 52 50 53 51 49 41 26 1 341 341 325 293 1 4 338 351 321 329 328 310 317 319 299 283 256 200 206 212 210 210 203 215 225 226 232 227 227 232 230 234 252 262 235 237 223 210 222 220 214 195 192 205 214 212 208 187 158 180 183 205 140 226 187 207 165 188 192 192 188 186 196 197 189 188 187 187 187 188 188 189 187
42 47 49 50 56 59 60 62 56 48 34 25 27 32 34 24 3 331 326 318 336 322 327 324 314 307 309 318 312 320 281 247 241 222 226 221 228 232 231 232 223 243 238 228 226 240 236 236 230 218 222 224 204 212 206 200 185 238 225 229 221 209 162 140 203 103 174 204 177 181 200 196 192 193 196 201 195 188 193 190 189 189 190 189 189
43 52 51 47 48 51 59 56 52 46 34 31 34 28 37 24 26 30 35 24 16 3 355 346 352 347 351 356 346 329 335 344 338 326 315 283 251 244 243 234 222 218 231 244 231 225 230 218 228 238 236 232 213 218 217 189 190 212 207 221 223 216 253 291 201 179 159 172 198 198 188 191 195 200 200 199 196 195 190 194 194 188 188 190 190
53 58 51 49 46 51 61 62 58 49 39 41 45 35 31 26 31 31 34 25 14 7 348 3 9 3 15 3 10 5 4 342 274 278 270 265 255 236 237 245 226 231 242 252 250 236 228 224 220 233 223 226 224 227 218 214 214 222 195 219 217 216 209 231 247 142 146 167 195 184 178 180 222 224 208 207 207 201 194 194 198 192 186 191 191
69 63 62 63 52 48 57 63 55 54 47 42 46 47 37 32 35 31 30 21 13 4 10 5 360 359 13 6 354 3 357 346 313 287 288 284 280 265 242 239 232 246 242 246 256 255 240 231 214 233 225 223 231 251 239 222 225 236 223 241 206 206 214 233 251 215 198 194 174 192 188 177 193 207 199 209 209 207 199 196 198 197 191 191 193
65 63 47 44 35 35 44 48 37 39 39 42 42 44 43 41 41 32 31 27 16 16 10 2 353 359 6 3 354 341 337 325 317 313 307 295 289 286 278 247 227 234 247 248 249 252 254 246 225 232 243 227 221 226 225 223 224 225 218 221 227 211 200 202 206 198 186 174 171 195 190 198 206 196 210 204 207 208 200 193 198 200 194 194 192